Regional Weather Roundup
Issued by NWS

Home | Current Version | Previous Version | Graphics & Text | Print | Product List | Glossary On
Versions: 1 2 3 4 5 6 7 8 9 10 11 12 13 14 15 16 17 18 19 20 21 22 23 24 25 26 27 28 29 30 31 32 33 34 35 36 37 38 39 40 41 42 43 44 45 46 47 48 49 50
863
ASUS45 KBOI 270910
RWRID

IDAHO REGIONAL WEATHER ROUNDUP
NATIONAL WEATHER SERVICE BOISE ID
300 AM MDT FRI MAY 27 2016

NOTE: "FAIR" INDICATES FEW OR NO CLOUDS BELOW 12000 FEET
WITH NO SIGNIFICANT WEATHER AND/OR OBSTRUCTIONS TO VISIBILITY

IDZ012-014-271000-
SOUTHWEST IDAHO


CITY           SKY/WX    TMP DP  RH WIND       PRES   REMARKS
BOISE          PTCLDY    54  41  61 NW5       29.91S
CALDWELL       PTCLDY    56  41  57 W14       29.93R
MOUNTAIN HOME  CLEAR     56  43  62 N9        29.91S
$$

IDZ016-017-271000-
SOUTHCENTRAL IDAHO


CITY           SKY/WX    TMP DP  RH WIND       PRES   REMARKS
BURLEY         PTCLDY    51  38  60 SW10      29.93S
JEROME         PTCLDY    50  41  71 SE6       29.94S
TWIN FALLS     PTCLDY    52  38  58 S13       29.94S
$$

IDZ019>023-271000-
SOUTHEAST IDAHO


CITY           SKY/WX    TMP DP  RH WIND       PRES   REMARKS
IDAHO FALLS    CLEAR     49  38  65 S12       29.93S
POCATELLO      CLEAR     53  37  54 SW12      29.95S
REXBURG        CLEAR     45  40  82 N5        29.93S
$$

IDZ006-010-011-018-031-032-271000-
CENTRAL IDAHO MOUNTAINS


CITY           SKY/WX    TMP DP  RH WIND       PRES   REMARKS
MCCALL         CLEAR     42  37  82 N3        29.95F
HAILEY         CLEAR     43  37  81 NW8       29.97S
STANLEY          N/A     35  29  78 CALM      30.02S
SALMON         CLOUDY    54  37  54 CALM      29.92S
CHALLIS        MOCLDY    49  37  63 NW5       29.94S
$$

IDZ002-004-006-007-026-271000-
NORTHERN IDAHO


CITY           SKY/WX    TMP DP  RH WIND       PRES   REMARKS
LEWISTON       CLOUDY    53  40  61 S7        29.97R
LOWELL           N/A     52  50  93 CALM      29.96F
COEUR D`ALENE  CLOUDY    50  39  66 S3        29.92R
MULLAN PASS    MOCLDY    38  34  85 W6        29.96F WCI  33
$$




USA.gov is the U.S. government's official web portal to all federal, state and local government web resources and services.